ANIK G1 (39127 NORAD) Tracking and Keplerian Element Data

This shows tracking and keplerian element data for the satellite.

Feedback or suggestion? Click here.




ElementValue
Catalog39127
NameANIK G1
Epoch Orbit4325
Epoch Day34.87666377
Epoch Year2025
RAAN225.8514
Inclination0.0043
Eccentricity0.0003086
Argument of Perigee72.6574
Mean Anonmoly44.0583
Mean Motion1.00271901
Decay Rate-7E-07
L11 39127U 13014A 25034.87666377 -.00000070 00000+0 00000+0 0 9991
L22 39127 0.0043 225.8514 0003086 72.6574 44.0583 1.00271901 43255



Live tracking and technical data element details for ANIK G1 (NORAD 39127). ANIK G1 can be tracked NOW for your location showing map with azimuth and elevation plus other details from your city location.







IsCatalogInMostPopularTable: catalog: 39127, numindb: 347
Update: records affected: 1



GetName: 39127 ANIK G1

Hit Count: updated at: Sat, 24 May 2025 16:39:45 GMT